DW4719 Vilanova I la Geltru ES current weather conditions

sailwx.info

Wind from 165 at 2 knots

Air temperature 18.9° C
Dewpoint 10.9° C

Last reported at 2018-Apr-19 09:09 UTC.
Time now 2018-Apr-19 10:09 UTC

Location: N 41°13' E 001°44'.
View on Google Maps.

See reports from other nearby stations

  
Tides and Currents Weather Stations Pressure Air Temp Water Temp Dewpoint Dewpoint Depression Visibility Wind Speed Wind Dir Waves Ship Positions
date/time (UTC)wind fromknots sea level pressurealtimeterstation pressurevisibilityair tempwater tempwave heightnotes
2018-Apr-19 09:09 165 2 18.9
2018-Apr-19 09:04 147 2 18.9
2018-Apr-19 08:59 155 2 18.9
2018-Apr-19 08:54 175 2 18.9
2018-Apr-19 08:49 191 2 19.4
2018-Apr-19 08:44 147 1 19.4
2018-Apr-19 08:39 157 2 19.4
2018-Apr-19 08:34 144 2 19.4
2018-Apr-19 08:29 136 0 19.4
2018-Apr-19 08:25 148 1 19.4
2018-Apr-19 08:19 147 1 18.9
2018-Apr-19 08:14 144 1 18.9
2018-Apr-19 08:09 145 1 18.9
2018-Apr-19 08:04 147 2 18.3
2018-Apr-19 07:59 137 1 18.3
2018-Apr-19 07:54 167 1 18.3
2018-Apr-19 07:49 140 1 17.8
2018-Apr-19 07:44 144 1 17.8
2018-Apr-19 07:39 147 1 17.8
2018-Apr-19 07:34 200 0 17.8
2018-Apr-19 07:29 152 0 17.8
2018-Apr-19 07:24 184 0 17.8
2018-Apr-19 07:19 199 1 17.8
2018-Apr-19 07:14 181 0 18.3
2018-Apr-19 07:09 095 18.3
2018-Apr-19 07:04 075 18.3
2018-Apr-19 07:00 083 17.8
2018-Apr-19 06:54 083 17.8
2018-Apr-19 06:49 085 17.2
2018-Apr-19 06:44 086 17.2
2018-Apr-19 06:39 086 16.7
2018-Apr-19 06:34 086 16.7
2018-Apr-19 06:29 353 16.7
2018-Apr-19 06:24 343 0 16.7
2018-Apr-19 06:19 325 0 16.7
2018-Apr-19 06:14 068 0 16.7
2018-Apr-19 06:09 062 16.7
2018-Apr-19 06:04 065 0 16.1
2018-Apr-19 05:59 066 0 16.1
2018-Apr-19 05:54 076 0 16.1
2018-Apr-19 05:49 092 15.6
2018-Apr-19 05:44 075 15.6
2018-Apr-19 05:39 075 0 15.6
2018-Apr-19 05:34 072 0 15.6
2018-Apr-19 05:29 078 0 15.6
2018-Apr-19 05:24 073 15.6
2018-Apr-19 05:19 065 15.6
2018-Apr-19 05:14 064 15.6
2018-Apr-19 05:09 065 15.6
2018-Apr-19 05:04 068 15.6
2018-Apr-19 04:59 068 15.6
2018-Apr-19 04:54 068 15.6
2018-Apr-19 04:49 068 15.6
2018-Apr-19 04:44 068 15.6
2018-Apr-19 04:39 065 15.6
2018-Apr-19 04:35 064 0 15.6
2018-Apr-19 04:29 065 1 15.6
2018-Apr-19 04:24 065 1 15.6
2018-Apr-19 04:19 062 1 15.6
2018-Apr-19 04:14 069 1 16.1
2018-Apr-19 04:09 069 0 16.1
2018-Apr-19 04:04 073 0 16.1
2018-Apr-19 04:00 075 1 16.1
2018-Apr-19 03:54 069 1 16.1
2018-Apr-19 03:49 076 1 16.1
2018-Apr-19 03:44 062 1 16.7
2018-Apr-19 03:39 082 2 16.7
2018-Apr-19 03:34 071 2 16.7
2018-Apr-19 03:29 082 2 16.7
2018-Apr-19 03:24 102 2 16.7
2018-Apr-19 03:19 095 3 16.7
2018-Apr-19 03:14 099 3 16.7
2018-Apr-19 03:09 107 2 16.7
2018-Apr-19 03:04 086 2 16.7
2018-Apr-19 02:59 103 2 16.7
2018-Apr-19 02:54 095 3 16.7
2018-Apr-19 02:49 076 3 16.1
2018-Apr-19 02:44 102 2 16.1
2018-Apr-19 02:39 083 2 16.1
2018-Apr-19 02:34 092 1 16.1
2018-Apr-19 02:29 085 1 16.1
2018-Apr-19 02:24 075 1 15.6
2018-Apr-19 02:19 090 1 15.6
2018-Apr-19 02:08 069 0 15.6
2018-Apr-19 02:04 076 1 15.6
2018-Apr-19 01:59 066 1 15.6
2018-Apr-19 01:54 071 1 15.6
2018-Apr-19 01:49 072 1 15.6
2018-Apr-19 01:44 071 0 15.6
2018-Apr-19 01:39 075 0 15.6
2018-Apr-19 01:34 079 0 15.0
2018-Apr-19 01:29 079 15.0
2018-Apr-19 01:24 073 15.0
2018-Apr-19 01:19 069 15.0
2018-Apr-19 01:14 079 15.0
2018-Apr-19 01:09 079 0 15.0
2018-Apr-19 01:04 079 0 15.0
2018-Apr-19 00:59 080 0 15.0
2018-Apr-19 00:54 062 15.6
2018-Apr-19 00:49 068 0 15.6
2018-Apr-19 00:44 072 0 15.6
2018-Apr-19 00:39 065 0 15.6
2018-Apr-19 00:34 047 15.6
2018-Apr-19 00:29 047 15.6
2018-Apr-19 00:24 045 15.6
2018-Apr-19 00:19 047 0 15.6
2018-Apr-19 00:14 048 1 16.1
2018-Apr-19 00:09 037 3 16.1
2018-Apr-19 00:04 055 3 16.7
2018-Apr-18 23:59 048 1 16.7
2018-Apr-18 23:54 066 1 16.7
2018-Apr-18 23:49 112 3 16.7
2018-Apr-18 23:44 092 4 16.7
2018-Apr-18 23:39 097 3 16.7
2018-Apr-18 23:34 076 2 16.7
2018-Apr-18 23:29 140 2 16.7
2018-Apr-18 23:24 045 3 16.7
2018-Apr-18 23:19 047 3 16.7
2018-Apr-18 23:14 055 2 17.2
2018-Apr-18 23:09 073 2 17.2
2018-Apr-18 23:04 065 2 17.2
2018-Apr-18 22:59 065 2 17.2
2018-Apr-18 22:54 089 3 17.2
2018-Apr-18 22:49 097 3 16.7
2018-Apr-18 22:44 048 4 16.7
2018-Apr-18 22:39 075 5 16.7
2018-Apr-18 22:34 064 4 16.7
2018-Apr-18 22:29 051 3 16.7
2018-Apr-18 22:24 058 1 16.7
2018-Apr-18 22:19 048 1 16.7
2018-Apr-18 22:14 069 1 16.7
2018-Apr-18 22:09 069 1 16.7
2018-Apr-18 22:04 078 0 16.7
2018-Apr-18 21:58 072 1 16.7
2018-Apr-18 21:54 064 1 16.7
2018-Apr-18 21:49 075 1 16.7
2018-Apr-18 21:44 073 2 16.7
2018-Apr-18 21:39 071 2 16.7
2018-Apr-18 21:34 079 2 16.7
2018-Apr-18 21:29 071 1 16.7
2018-Apr-18 21:24 068 1 16.7
2018-Apr-18 21:19 072 1 16.7
2018-Apr-18 21:14 086 0 16.7
2018-Apr-18 21:09 095 0 16.7
2018-Apr-18 21:04 096 0 16.7
2018-Apr-18 20:59 097 16.7
2018-Apr-18 20:54 099 16.7
2018-Apr-18 20:49 099 16.7
2018-Apr-18 20:44 102 16.7
2018-Apr-18 20:39 100 16.7
2018-Apr-18 20:34 100 16.7
2018-Apr-18 20:29 100 16.7
2018-Apr-18 20:24 100 16.7
2018-Apr-18 20:19 100 16.7
2018-Apr-18 20:14 102 17.2
2018-Apr-18 20:09 100 17.2
2018-Apr-18 20:04 100 17.2
2018-Apr-18 19:59 102 17.2
2018-Apr-18 19:54 103 17.2
2018-Apr-18 19:49 102 17.8
2018-Apr-18 19:44 102 17.8
2018-Apr-18 19:39 102 17.8
2018-Apr-18 19:34 088 17.8
2018-Apr-18 19:29 099 0 17.8
2018-Apr-18 19:24 100 0 17.8
2018-Apr-18 19:19 099 1 17.8
2018-Apr-18 19:14 099 1 17.8
2018-Apr-18 19:09 102 0 17.8
2018-Apr-18 19:04 103 17.8
2018-Apr-18 18:59 102 18.3
2018-Apr-18 18:54 088 18.3
2018-Apr-18 18:49 099 18.3
2018-Apr-18 18:44 099 0 17.8
2018-Apr-18 18:39 100 0 17.8
2018-Apr-18 18:34 203 17.8
2018-Apr-18 18:29 203 18.3
2018-Apr-18 18:24 202 0 18.3
2018-Apr-18 18:19 202 0 18.3
2018-Apr-18 18:14 205 0 18.3
2018-Apr-18 18:09 128 0 18.3
2018-Apr-18 18:04 128 2 18.3
2018-Apr-18 17:59 148 1 18.3
2018-Apr-18 17:54 191 1 18.9
2018-Apr-18 17:49 268 1 18.9
2018-Apr-18 17:44 270 1 19.4
2018-Apr-18 17:39 151 1 19.4
2018-Apr-18 17:34 151 1 19.4
2018-Apr-18 17:29 147 1 19.4
2018-Apr-18 17:24 103 1 19.4
2018-Apr-18 17:19 121 2 19.4
2018-Apr-18 17:14 130 2 19.4
2018-Apr-18 17:09 148 2 19.4
2018-Apr-18 17:04 141 1 20.0
2018-Apr-18 16:59 191 1 20.0
2018-Apr-18 16:54 191 1 20.0
2018-Apr-18 16:49 158 1 19.4
2018-Apr-18 16:44 112 2 19.4
2018-Apr-18 16:39 191 4 19.4
2018-Apr-18 16:34 147 4 18.9
2018-Apr-18 16:29 119 4 18.9
2018-Apr-18 16:24 164 5 18.3
2018-Apr-18 16:19 174 4 18.9
2018-Apr-18 16:14 147 4 18.9
2018-Apr-18 16:09 113 4 18.9
2018-Apr-18 16:04 145 4 18.9
2018-Apr-18 15:59 134 2 19.4
2018-Apr-18 15:54 164 2 20.0
2018-Apr-18 15:49 160 2 20.0
2018-Apr-18 15:44 154 2 20.0
2018-Apr-18 15:39 154 2 20.0
2018-Apr-18 15:34 176 1 20.0
2018-Apr-18 15:29 186 1 20.0
2018-Apr-18 15:24 185 3 19.4
2018-Apr-18 15:19 196 4 18.9
2018-Apr-18 15:14 184 4 18.9
2018-Apr-18 15:09 134 4 18.9
2018-Apr-18 15:04 158 3 18.9
2018-Apr-18 14:59 121 3 19.4
2018-Apr-18 14:54 141 3 19.4
2018-Apr-18 14:49 210 2 19.4
2018-Apr-18 14:44 202 2 19.4
2018-Apr-18 14:39 202 3 18.9
2018-Apr-18 14:34 199 6 18.9
2018-Apr-18 14:29 147 6 18.9
2018-Apr-18 14:24 138 5 19.4
2018-Apr-18 14:19 167 5 19.4
2018-Apr-18 14:14 133 5 19.4
2018-Apr-18 14:09 137 5 19.4
2018-Apr-18 14:04 169 3 20.0
2018-Apr-18 13:59 161 4 20.0
2018-Apr-18 13:54 172 5 20.0
2018-Apr-18 13:49 120 6 20.0
2018-Apr-18 13:44 121 6 20.0
2018-Apr-18 13:39 130 6 20.0
2018-Apr-18 13:34 128 7 19.4
2018-Apr-18 13:29 154 7 19.4
2018-Apr-18 13:24 128 7 19.4
2018-Apr-18 13:19 103 7 19.4
2018-Apr-18 13:14 088 7 20.0
2018-Apr-18 13:09 147 6 19.4
2018-Apr-18 13:04 141 7 20.0
2018-Apr-18 12:59 134 7 20.0
2018-Apr-18 12:54 131 6 20.0
2018-Apr-18 12:49 124 7 20.0
2018-Apr-18 12:44 169 6 20.6
2018-Apr-18 12:39 150 6 20.0
2018-Apr-18 12:34 165 6 20.6
2018-Apr-18 12:29 133 6 20.6
2018-Apr-18 12:24 083 5 20.6
2018-Apr-18 12:19 137 5 20.6
2018-Apr-18 12:14 133 5 20.6
2018-Apr-18 12:09 140 5 20.6
2018-Apr-18 12:04 136 4 20.6
2018-Apr-18 11:59 155 3 20.6
2018-Apr-18 11:54 165 4 20.6
2018-Apr-18 11:49 145 4 20.0
2018-Apr-18 11:44 200 3 20.0
2018-Apr-18 11:39 160 2 20.0
2018-Apr-18 11:34 112 2 20.0
2018-Apr-18 11:29 119 2 20.0
2018-Apr-18 11:24 208 2 20.0
2018-Apr-18 11:19 219 2 20.0
2018-Apr-18 11:14 182 2 20.0
2018-Apr-18 11:09 215 2 20.0
2018-Apr-18 11:04 219 2 20.0
2018-Apr-18 10:59 158 2 20.6
2018-Apr-18 10:54 179 3 20.6
2018-Apr-18 10:49 241 2 20.6
2018-Apr-18 10:44 210 2 20.6
2018-Apr-18 10:39 203 2 20.0
2018-Apr-18 10:34 203 3 20.0
2018-Apr-18 10:29 165 3 20.0
2018-Apr-18 10:24 171 3 20.0
2018-Apr-18 10:19 144 3 20.0
2018-Apr-18 10:14 188 4 19.4
2018-Apr-18 10:09 124 5 19.4
2018-Apr-18 10:04 198 6 18.9
2018-Apr-18 09:59 114 6 18.9
2018-Apr-18 09:54 151 6 19.4
2018-Apr-18 09:49 161 6 19.4
2018-Apr-18 09:44 124 5 20.0
2018-Apr-18 09:39 178 5 20.6
2018-Apr-18 09:34 157 5 20.6
2018-Apr-18 09:29 150 6 20.0
2018-Apr-18 09:24 110 6 20.0
2018-Apr-18 09:19 150 4 19.4
2018-Apr-18 09:14 158 4 19.4
2018-Apr-18 09:09 141 3 19.4
2018-Apr-18 09:04 171 3 18.9
2018-Apr-18 08:59 128 3 18.9
2018-Apr-18 08:54 140 2 18.9
2018-Apr-18 08:49 145 1 18.9
2018-Apr-18 08:44 144 1 18.3
2018-Apr-18 08:39 154 1 18.3
2018-Apr-18 08:34 193 1 18.3
2018-Apr-18 08:29 179 1 17.8
2018-Apr-18 08:24 165 2 17.8
2018-Apr-18 08:19 165 2 18.3
2018-Apr-18 08:14 158 1 18.3
2018-Apr-18 08:09 161 0 18.9
2018-Apr-18 08:04 184 1 18.9
2018-Apr-18 07:59 203 1 18.9
2018-Apr-18 07:54 167 1 18.9
2018-Apr-18 07:49 134 1 18.9
2018-Apr-18 07:37 112 18.9
2018-Apr-18 07:34 112 18.9
2018-Apr-18 07:29 107 18.9
2018-Apr-18 07:24 103 18.9
2018-Apr-18 07:19 102 18.9
2018-Apr-18 07:14 042 18.3
2018-Apr-18 07:09 044 18.3
2018-Apr-18 07:04 045 17.8
2018-Apr-18 06:59 047 17.2
2018-Apr-18 06:54 045 17.2
2018-Apr-18 06:49 045 0 16.7
2018-Apr-18 06:44 048 16.1
2018-Apr-18 06:39 045 15.6
2018-Apr-18 06:34 047 0 15.6
2018-Apr-18 06:29 047 0 15.0
2018-Apr-18 06:24 045 0 15.0
2018-Apr-18 06:19 044 0 14.4
2018-Apr-18 06:14 013 0 14.4
2018-Apr-18 06:09 010 13.9
2018-Apr-18 06:04 010 13.9
2018-Apr-18 05:59 010 13.9
2018-Apr-18 05:54 011 13.9
2018-Apr-18 05:49 011 13.3
2018-Apr-18 05:44 010 13.3
2018-Apr-18 05:39 010 13.3
2018-Apr-18 05:34 010 13.3
2018-Apr-18 05:29 007 13.3
2018-Apr-18 05:24 007 13.3
2018-Apr-18 05:19 006 13.3
2018-Apr-18 05:14 006 13.3
2018-Apr-18 05:09 004 13.9
2018-Apr-18 05:04 004 13.9
2018-Apr-18 04:59 007 13.9
2018-Apr-18 04:54 006 13.9
2018-Apr-18 04:49 006 13.9
2018-Apr-18 04:44 006 13.9
2018-Apr-18 04:39 006 0 14.4
2018-Apr-18 04:34 006 0 14.4
2018-Apr-18 04:29 006 14.4
2018-Apr-18 04:24 006 0 14.4
2018-Apr-18 04:19 006 1 14.4
2018-Apr-18 04:14 008 1 14.4
2018-Apr-18 04:09 010 0 14.4
2018-Apr-18 04:04 089 14.4
2018-Apr-18 03:59 119 15.0
2018-Apr-18 03:54 119 1 15.0
2018-Apr-18 03:49 054 1 15.0
2018-Apr-18 03:44 052 1 15.0
2018-Apr-18 03:39 044 1 15.0
2018-Apr-18 03:34 066 0 15.0
2018-Apr-18 03:29 044 0 15.0
2018-Apr-18 03:24 042 1 15.0
2018-Apr-18 03:19 047 0 15.0
2018-Apr-18 03:14 044 0 15.0
2018-Apr-18 03:09 020 15.0
2018-Apr-18 03:04 021 15.0
2018-Apr-18 02:59 018 15.0
2018-Apr-18 02:54 018 0 15.0
2018-Apr-18 02:49 018 0 15.0
2018-Apr-18 02:44 018 0 15.0
2018-Apr-18 02:39 018 0 15.0
2018-Apr-18 02:34 017 0 15.0
2018-Apr-18 02:29 017 0 15.0
2018-Apr-18 02:24 016 0 15.0
2018-Apr-18 02:19 016 1 15.0
2018-Apr-18 02:14 011 0 15.0
2018-Apr-18 02:09 014 0 15.0
2018-Apr-18 02:04 014 1 15.0
2018-Apr-18 01:59 013 1 15.0
2018-Apr-18 01:54 014 0 15.0
2018-Apr-18 01:49 006 14.4
2018-Apr-18 01:44 004 0 14.4
2018-Apr-18 01:39 003 0 14.4
2018-Apr-18 01:34 011 0 14.4
2018-Apr-18 01:29 006 0 14.4
2018-Apr-18 01:24 001 1 14.4
2018-Apr-18 01:19 032 1 14.4
2018-Apr-18 01:14 023 1 14.4
2018-Apr-18 01:09 035 0 14.4
2018-Apr-18 01:04 016 14.4
2018-Apr-18 00:59 016 14.4
2018-Apr-18 00:54 025 0 14.4
2018-Apr-18 00:49 028 0 13.9
2018-Apr-18 00:44 024 13.9
2018-Apr-18 00:39 007 13.9
2018-Apr-18 00:34 017 13.9
2018-Apr-18 00:29 034 13.9
2018-Apr-18 00:24 034 13.9
2018-Apr-18 00:19 007 0 13.9
2018-Apr-18 00:14 006 13.9
2018-Apr-18 00:09 006 13.9
2018-Apr-18 00:04 006 0 13.9
2018-Apr-17 23:59 034 0 13.9
2018-Apr-17 23:54 044 0 13.9
2018-Apr-17 23:49 047 0 13.9
2018-Apr-17 23:44 047 0 13.9
2018-Apr-17 23:39 047 0 13.9
2018-Apr-17 23:34 016 13.9
2018-Apr-17 23:29 020 13.9
2018-Apr-17 23:24 017 13.9
2018-Apr-17 23:19 023 13.9
2018-Apr-17 23:14 023 13.9
2018-Apr-17 23:09 016 13.9
2018-Apr-17 23:04 016 13.9
2018-Apr-17 22:59 016 14.4
2018-Apr-17 22:54 014 0 14.4
2018-Apr-17 22:49 016 14.4
2018-Apr-17 22:44 028 14.4
2018-Apr-17 22:39 028 14.4
2018-Apr-17 22:34 028 14.4
2018-Apr-17 22:29 028 0 14.4
2018-Apr-17 22:24 027 1 14.4
2018-Apr-17 22:19 030 1 14.4
2018-Apr-17 22:14 011 1 14.4
2018-Apr-17 22:09 001 0 15.0
2018-Apr-17 22:04 040 0 15.0
2018-Apr-17 21:59 049 1 15.0
2018-Apr-17 21:54 017 2 15.0
2018-Apr-17 21:49 034 1 15.0
2018-Apr-17 21:44 034 0 15.0
2018-Apr-17 21:39 354 15.0
2018-Apr-17 21:34 354 15.0
2018-Apr-17 21:29 354 15.0
2018-Apr-17 21:24 354 15.0
2018-Apr-17 21:19 354 15.6
2018-Apr-17 21:14 354 15.6
2018-Apr-17 21:09 354 15.6
2018-Apr-17 21:04 354 15.6
2018-Apr-17 20:59 354 15.6
2018-Apr-17 20:54 354 15.6
2018-Apr-17 20:49 354 15.6
2018-Apr-17 20:44 360 0 16.1
2018-Apr-17 20:39 354 16.1
2018-Apr-17 20:34 354 0 16.1
2018-Apr-17 20:29 360 0 16.1
2018-Apr-17 20:24 354 16.1
2018-Apr-17 20:19 294 16.1
2018-Apr-17 20:14 294 16.1
2018-Apr-17 20:09 292 16.1
2018-Apr-17 20:04 292 16.7
2018-Apr-17 19:59 292 0 16.7
2018-Apr-17 19:54 292 0 16.7
2018-Apr-17 19:49 263 16.7
2018-Apr-17 19:44 263 16.7
2018-Apr-17 19:39 257 16.7
2018-Apr-17 19:34 257 16.7
2018-Apr-17 19:29 258 0 16.7
2018-Apr-17 19:24 258 0 16.7
2018-Apr-17 19:19 251 1 16.7
2018-Apr-17 19:14 248 2 16.7
2018-Apr-17 19:09 267 2 17.2
2018-Apr-17 19:04 263 1 17.2
2018-Apr-17 18:59 233 2 17.2
2018-Apr-17 18:54 230 3 17.2
2018-Apr-17 18:49 268 4 17.2
2018-Apr-17 18:44 256 3 17.2
2018-Apr-17 18:39 247 2 17.2
2018-Apr-17 18:34 244 3 17.2
2018-Apr-17 18:29 268 4 17.8
2018-Apr-17 18:24 263 4 17.8
2018-Apr-17 18:19 232 4 17.8
2018-Apr-17 18:14 251 4 18.3
2018-Apr-17 18:09 239 4 18.3
2018-Apr-17 18:04 240 4 18.3
2018-Apr-17 17:59 261 3 18.9
2018-Apr-17 17:54 274 4 18.9
2018-Apr-17 17:49 274 5 18.9
2018-Apr-17 17:44 258 5 18.9
2018-Apr-17 17:39 253 5 18.9
2018-Apr-17 17:34 263 5 18.9
2018-Apr-17 17:29 243 5 18.9
2018-Apr-17 17:24 250 5 18.9
2018-Apr-17 17:19 254 6 18.9
2018-Apr-17 17:14 261 6 18.9
2018-Apr-17 17:09 260 6 18.9
2018-Apr-17 17:04 272 6 18.9
2018-Apr-17 16:59 213 6 19.4
2018-Apr-17 16:54 254 6 18.9
2018-Apr-17 16:49 264 6 18.9
2018-Apr-17 16:44 258 6 18.9
2018-Apr-17 16:39 246 7 18.9
2018-Apr-17 16:34 251 6 19.4
2018-Apr-17 16:29 250 7 19.4
2018-Apr-17 16:24 233 8 19.4
2018-Apr-17 16:19 264 8 19.4
2018-Apr-17 16:14 256 7 19.4
2018-Apr-17 16:09 263 6 18.9
2018-Apr-17 16:04 237 5 18.9
2018-Apr-17 15:59 257 5 18.9
2018-Apr-17 15:54 258 6 18.9
2018-Apr-17 15:49 232 6 18.9
2018-Apr-17 15:44 236 6 18.9
2018-Apr-17 15:39 282 5 18.9
2018-Apr-17 15:34 282 5 18.9
2018-Apr-17 15:29 230 5 18.9
2018-Apr-17 15:24 224 4 18.9
2018-Apr-17 15:19 246 4 18.9
2018-Apr-17 15:14 209 4 18.9
2018-Apr-17 15:09 200 3 18.9
2018-Apr-17 15:04 271 3 19.4
2018-Apr-17 14:59 278 3 18.9
2018-Apr-17 14:54 215 3 18.9
2018-Apr-17 14:49 158 3 18.9
2018-Apr-17 14:44 257 2 18.9
2018-Apr-17 14:39 200 2 18.9
2018-Apr-17 14:34 216 3 18.9
2018-Apr-17 14:29 226 3 18.3
2018-Apr-17 14:24 167 3 18.3
2018-Apr-17 14:19 205 3 18.3
2018-Apr-17 14:14 233 3 18.9
2018-Apr-17 14:09 248 3 18.3
2018-Apr-17 14:04 188 3 18.3
2018-Apr-17 13:59 213 3 18.3
2018-Apr-17 13:54 196 3 18.9
2018-Apr-17 13:49 216 2 18.9
2018-Apr-17 13:44 184 2 18.3
2018-Apr-17 13:39 243 3 17.8
2018-Apr-17 13:34 138 3 17.8
2018-Apr-17 13:29 203 3 17.8
2018-Apr-17 13:24 123 4 17.8
2018-Apr-17 13:19 133 3 17.8
2018-Apr-17 13:14 136 3 18.3
2018-Apr-17 13:07 193 4 17.8
2018-Apr-17 13:04 230 3 18.3
2018-Apr-17 12:59 243 2 18.3
2018-Apr-17 12:54 157 2 18.3
2018-Apr-17 12:49 205 3 18.3
2018-Apr-17 12:44 137 2 18.3
2018-Apr-17 12:39 240 2 18.3
2018-Apr-17 12:34 227 2 18.3
2018-Apr-17 12:29 193 2 17.8
2018-Apr-17 12:24 143 2 17.8
2018-Apr-17 12:19 230 2 17.8
2018-Apr-17 12:14 181 4 17.2
2018-Apr-17 12:09 126 4 17.2
2018-Apr-17 12:04 147 4 17.8
2018-Apr-17 11:59 128 4 17.8
2018-Apr-17 11:54 134 3 18.3
2018-Apr-17 11:49 199 2 18.9
2018-Apr-17 11:44 192 3 18.3
2018-Apr-17 11:39 215 3 18.3
2018-Apr-17 11:34 200 4 18.3
2018-Apr-17 11:29 191 4 18.3
2018-Apr-17 11:24 237 5 18.3
2018-Apr-17 11:19 206 4 18.3
2018-Apr-17 11:14 193 4 18.3
2018-Apr-17 11:09 209 3 18.3
2018-Apr-17 11:04 230 4 18.3
2018-Apr-17 10:59 176 4 17.8
2018-Apr-17 10:54 191 3 17.8
2018-Apr-17 10:49 209 2 17.8
2018-Apr-17 10:44 191 3 17.8
2018-Apr-17 10:39 191 2 17.8
2018-Apr-17 10:34 199 2 18.3
2018-Apr-17 10:29 175 3 18.3
2018-Apr-17 10:24 185 4 18.3
2018-Apr-17 10:19 196 3 18.3
2018-Apr-17 10:14 226 3 18.3
2018-Apr-17 10:09 192 3 18.3
2018-Apr-17 10:04 174 3 19.4